Change the Weather History Date:

Monday, November 5, 2012

  Actual Average Record
Temperature  
Mean Temperature 42 °F -  
Max Temperature 42 °F 47 °F 68 °F (2001)
Min Temperature 41 °F 29 °F 1 °F (1951)
Degree Days  
Heating Degree Days 24    
Moisture  
Dew Point 37 °F    
Average Humidity 84    
Maximum Humidity 87    
Minimum Humidity 81    
Precipitation  
Precipitation 0.03 in - - ()
Sea Level Pressure  
Sea Level Pressure 30.14 in    
Wind  
Wind Speed 5 mph (ESE)    
Max Wind Speed 8 mph    
Max Gust Speed -    
Visibility 4 miles    
Events Rain    
Averages and records for this station are not official NWS values.
T = Trace of Precipitation, MM = Missing Value Source: NWS Daily Summary

Daily Weather History Graph

Daily Weather History Graph

Search for Another Location

Airport or City:

Trip Planner

Search our weather history database for the weather conditions in past years. The results will help you decide how hot, cold, wet, or windy it might be!

Date:

Astronomy

Nov. 05, 2012 Rise Set
Actual Time 6:50 AM CST 4:56 PM CST
Civil Twilight 6:20 AM CST 5:26 PM CST
Nautical Twilight 5:47 AM CST 6:00 PM CST
Astronomical Twilight 5:13 AM CST 6:33 PM CST
Moon 10:35 PM CST (11/5) 12:10 PM CST (11/5)
Length of Visible Light 11h 05m
Length of Day
10h 05m
Waning Gibbous, 62% of the Moon is Illuminated
Nov 5
Waning Gibbous
Nov 6
Last Quarter
Nov 13
New
Nov 20
First Quarter
Nov 28
Full

Hourly Weather History & Observations

Time (CST) Temp. Windchill Dew Point Humidity Pressure Visibility Wind Dir Wind Speed Gust Speed Precip Events Conditions
12:15 AM 42.8 °F 39.3 °F 37.4 °F 81% 30.13 in 4.0 mi SSE 5.8 mph - N/A Rain Light Rain
12:35 AM 42.8 °F 38.0 °F 37.4 °F 81% 30.13 in 4.0 mi SSE 8.1 mph - N/A Rain Light Rain
12:55 AM 42.8 °F 39.3 °F 37.4 °F 81% 30.13 in 4.0 mi SE 5.8 mph - 0.01 in Rain Rain
1:15 AM 42.8 °F 39.3 °F 37.4 °F 81% 30.13 in 3.0 mi SE 5.8 mph - N/A Rain Light Rain
1:35 AM 42.8 °F 38.6 °F 37.4 °F 81% 30.13 in 4.0 mi SE 6.9 mph - N/A   Overcast
1:55 AM 42.8 °F 41.1 °F 37.4 °F 81% 30.13 in 4.0 mi ESE 3.5 mph - N/A   Overcast
2:15 AM 42.8 °F 40.1 °F 37.4 °F 81% 30.14 in 4.0 mi ESE 4.6 mph - N/A   Light Drizzle
2:35 AM 42.8 °F 40.1 °F 37.4 °F 81% 30.14 in 4.0 mi ESE 4.6 mph - 0.01 in Rain Light Rain
3:15 AM 42.8 °F 41.1 °F 37.4 °F 81% 30.13 in 4.0 mi ESE 3.5 mph - 0.01 in Rain Light Rain
3:35 AM 41.0 °F 39.0 °F 37.4 °F 87% 30.13 in 3.0 mi SE 3.5 mph - 0.01 in Rain Light Rain
3:55 AM 41.0 °F - 37.4 °F 87% 30.13 in 4.0 mi Calm Calm - 0.01 in   Overcast
4:15 AM 41.0 °F 39.0 °F 37.4 °F 87% 30.13 in 4.0 mi East 3.5 mph - N/A   Overcast
4:35 AM 41.0 °F - 37.4 °F 87% 30.14 in 3.0 mi Calm Calm - N/A   Overcast
4:55 AM 41.0 °F 39.0 °F 37.4 °F 87% 30.14 in 3.0 mi NE 3.5 mph - N/A   Overcast
5:15 AM 41.0 °F 38.0 °F 37.4 °F 87% 30.14 in 3.0 mi ENE 4.6 mph - N/A   Overcast
5:35 AM 41.0 °F 38.0 °F 37.4 °F 87% 30.14 in 4.0 mi ENE 4.6 mph - N/A   Overcast
5:55 AM 41.0 °F 37.1 °F 37.4 °F 87% 30.14 in 5.0 mi East 5.8 mph - N/A   Overcast
6:15 AM 41.0 °F 38.0 °F 37.4 °F 87% 30.14 in 5.0 mi East 4.6 mph - N/A   Overcast
6:35 AM 41.0 °F 38.0 °F 37.4 °F 87% 30.14 in 7.0 mi East 4.6 mph - N/A   Overcast
6:55 AM 41.0 °F 39.0 °F 35.6 °F 81% 30.15 in 7.0 mi East 3.5 mph - N/A   Overcast
7:15 AM 41.0 °F 38.0 °F 35.6 °F 81% 30.15 in 7.0 mi East 4.6 mph - N/A   Overcast
7:35 AM 41.0 °F 37.1 °F 35.6 °F 81% 30.16 in 7.0 mi ESE 5.8 mph - N/A   Overcast